FENGYUN 3G

Last updated on Thu Apr 09 2026 00:02:23 GMT+0000 (Coordinated Universal Time)

1 56232U 23055A 26098.68478713 .00024906 00000+0 38597-3 0 9997 2 56232 49.9943 344.3864 0003772 62.1939 297.9410 15.53813421169202
UTC large
Height (km)
Speed (km/s)
/
Latitude / Longitude
Inclination (degrees)
Orbital Period (minutes)
Azimuth
Elevation
Range (km)
Doppler Factor

Next 0 passes for location: London (51.5072 / 0.1276)

Sorry there are no passes over London.